Weather observations for the past three days for
Colorado Air and Space Port Airport
Imperial (Metric)
Date Time (mdt) Wind (mph) Vis. (mi.) Weather Sky Cond. Temperature (ºF) Relative Humidity Wind Chill (°F) Heat Index (°F) Pressure Precipitation (in)
Air Dwpt 6 hour altimeter (in) sea level (mb) 1 hr 3 hr 6 hr
Max. Min.
22 04:15 SW 9 10.00 Fair CLR 59 51.1 75% 30.28 0.0
22 03:55 SW 9 10.00 Fair CLR 59.2 51.1 75% 30.28 0.0
22 03:35 SW 9 10.00 Fair CLR 59 51.3 76% 30.28 0.0
22 03:15 SW 10 10.00 Fair CLR 58.8 51.8 78% 30.28 0.0
22 02:55 SW 10 10.00 Fair CLR 59 52 78% 30.29 0.0
22 02:35 SW 9 10.00 Fair CLR 59 52 78% 30.3 0.0
22 02:15 SW 10 10.00 Fair CLR 59.4 51.8 76% 30.3 0.0
22 01:55 SW 12 10.00 Fair CLR 59.4 51.8 76% 30.3 0.0
22 01:35 SW 9 10.00 Fair CLR 58.3 50.9 77% 30.3 0.0
22 01:15 SW 10 10.00 Fair CLR 58.6 50.4 74% 30.32 0.0
22 00:55 SW 12 10.00 Fair CLR 60.3 49.8 69% 30.32 0.0
22 00:35 SW 13 10.00 Fair CLR 60.4 49.8 68% 30.33 0.0
22 00:15 S 9 10.00 Fair CLR 59.4 51.3 75% 30.33 0.0
21 23:55 S 9 10.00 Fair CLR 59.4 52 72 59.4 77% 30.34 0.0
21 23:35 SE 7 10.00 Fair CLR 60.3 52.2 75% 30.35 0.0
21 23:15 S 9 10.00 Partly Cloudy SCT090 61.3 52 72% 30.34 0.0
21 22:55 S 9 10.00 Mostly Cloudy BKN090 62.1 51.8 69% 30.35 0.0
21 22:35 S 9 10.00 Overcast OVC090 62.8 52 68% 30.35 0.0
21 22:15 S 14 G 20 10.00 Thunderstorm in Vicinity BKN090 63.3 53.4 70% 30.34 0.0
21 21:55 SE 16 10.00 Partly Cloudy SCT090 64.4 54.3 70% 30.33 0.0
21 21:35 SE 13 G 23 10.00 Thunderstorm OVC090 66 52.2 61% 30.33 0.0
21 21:15 SW 7 10.00 Overcast BKN090 OVC110 62.8 52.2 68% 30.32 0.0
21 20:47 SW 10 10.00 Thunderstorm BKN080 64.4 50 60% 30.31 0.0
21 19:47 SW 10 10.00 Mostly Cloudy BKN070 66.2 53.6 64% 30.32 0.0
21 18:47 SW 8 10.00 Partly Cloudy SCT075 69.8 51.8 53% 30.31 0.0
21 17:47 SW 12 10.00 Mostly Cloudy BKN075 71.6 51.8 50% 30.3 0.0
21 16:47 SW 17 G 25 10.00 Mostly Cloudy BKN075 71.6 53.6 53% 30.3 0.0
21 15:47 NE 6 10.00 Thunderstorm SCT075 78.8 44.6 30% 79 30.33 0.0
21 14:47 N 9 G 16 10.00 Mostly Cloudy SCT060 BKN100 78.8 44.6 30% 79 30.3 0.0
21 13:47 E 7 10.00 Mostly Cloudy SCT050 BKN075 78.8 44.6 30% 79 30.32 0.0
21 12:47 NE 8 10.00 Partly Cloudy SCT050 77 48.2 36% 78 30.34 0.0
21 10:47 N 5 10.00 Partly Cloudy SCT033 71.6 53.6 53% 30.38 0.0
21 09:47 Calm 10.00 Fair CLR 69.8 53.6 57% 30.37 0.0
21 08:47 W 3 10.00 Fair CLR 68 55.4 64% 30.37 0.0
21 07:47 W 6 10.00 Fair CLR 64.4 55.4 73% 30.37 0.0
21 06:47 SW 7 10.00 Fair CLR 62.6 53.6 73% 30.36 0.0
21 06:35 SW 3 10.00 Fair CLR 62.6 54 74% 30.36 0.0
21 06:15 SW 3 10.00 Fair CLR 61.3 55.4 81% 30.36 0.0
21 05:55 S 3 10.00 Partly Cloudy SCT120 61.2 55.6 63 60.8 82% 30.36 0.0
21 05:35 S 5 10.00 Mostly Cloudy BKN120 61.5 55.8 82% 30.36 0.0
21 05:15 S 6 10.00 Overcast OVC120 61.3 56.5 84% 30.35 0.0
21 04:55 SE 3 10.00 Mostly Cloudy BKN120 61.5 55.9 82% 30.35 0.0
21 04:35 S 3 10.00 Partly Cloudy SCT120 61.2 55.9 83% 30.35 0.0
21 03:55 S 3 10.00 Mostly Cloudy BKN120 61.5 55.8 82% 30.35 0.0
21 03:35 S 6 10.00 Mostly Cloudy BKN120 61.3 56.3 84% 30.35 0.0
21 03:15 S 7 10.00 Partly Cloudy SCT120 61 56.3 85% 30.35 0.0
21 02:55 S 6 10.00 Mostly Cloudy BKN120 61.5 56.1 83% 30.36 0.0
21 02:35 S 6 10.00 Partly Cloudy SCT120 61.3 55.4 81% 30.35 0.0
21 02:15 S 7 10.00 Fair CLR 60.8 55.6 83% 30.35 0.0
21 01:55 SW 8 10.00 Fair CLR 61.3 55.4 81% 30.36 0.0
21 01:35 SW 8 10.00 Partly Cloudy SCT120 61 56.1 84% 30.37 0.0
21 01:15 SW 8 10.00 Partly Cloudy SCT120 61 56.3 85% 30.38 0.0
21 00:55 SW 10 10.00 Partly Cloudy SCT120 61.3 57.2 86% 30.38 0.0
21 00:35 SW 12 10.00 Mostly Cloudy BKN120 61.7 57.9 88% 30.38 0.0
21 00:15 SW 12 10.00 Overcast OVC120 62.6 59.2 89% 30.37 0.0
20 23:55 W 9 10.00 Light Drizzle BKN100 OVC120 63 59.4 85.1 62.6 88% 30.39 0.0
20 23:35 W 9 10.00 Light Drizzle SCT085 OVC110 62.6 59.2 89% 30.4 0.0
20 23:15 NW 7 10.00 Overcast OVC110 62.6 59 88% 30.4 0.0
20 22:55 NW 5 10.00 Mostly Cloudy BKN110 62.6 58.3 86% 30.41 0.0
20 22:35 SW 3 10.00 Overcast SCT050 BKN100 OVC120 63.7 58.1 82% 30.39 0.0
20 22:15 SE 13 4.00 Heavy Rain SCT048 BKN060 OVC080 63.9 58.3 82% 30.38 0.0
20 21:55 SW 7 7.00 Thunderstorm Rain in Vicinity OVC080 64.4 59.2 83% 30.43 0.0
20 21:35 NW 6 10.00 Thunderstorm Rain SCT065 OVC080 65.3 56.1 72% 30.42 0.0
20 21:15 N 18 G 24 10.00 Thunderstorm Rain SCT065 BKN080 BKN110 67.3 54.1 63% 30.4 0.0
20 19:47 E 16 G 24 10.00 Mostly Cloudy BKN090 71.6 42.8 36% 30.32 0.0
20 17:47 NE 10 G 15 10.00 Fair CLR 84.2 42.8 23% 82 30.26 0.0
20 16:47 NE 10 G 20 10.00 Fair CLR 86 41 20% 83 30.28 0.0
20 15:47 NE 6 G 18 10.00 Fair CLR 86 41 20% 83 30.28 0.0
20 14:47 NE 10 G 17 10.00 Fair CLR 84.2 41 22% 82 30.31 0.0
20 13:47 NE 10 G 17 10.00 Fair CLR 82.4 46.4 28% 81 30.33 0.0
20 12:47 NE 5 10.00 Fair CLR 80.6 48.2 32% 80 30.35 0.0
20 11:47 NE 7 10.00 Partly Cloudy SCT100 78.8 48.2 34% 79 30.36 0.0
20 09:47 N 5 10.00 Partly Cloudy SCT110 73.4 51.8 47% 30.36 0.0
20 08:47 Calm 10.00 Overcast OVC110 69.8 51.8 53% 30.35 0.0
20 07:47 W 7 10.00 Mostly Cloudy BKN120 68 48.2 49% 30.33 0.0
20 06:47 SW 7 10.00 Fair CLR 64.4 48.2 56% 30.31 0.0
20 06:35 SW 6 10.00 Fair CLR 63.7 48.6 58% 30.31 0.0
20 06:15 SW 5 10.00 Fair CLR 63.5 48.6 58% 30.3 0.0
20 05:55 SW 7 10.00 Fair CLR 63.5 48.7 66.7 60.8 59% 30.3 0.0
20 05:35 SW 8 10.00 Fair CLR 62.8 49.1 61% 30.29 0.0
20 05:15 S 8 10.00 Fair CLR 62.6 49.5 62% 30.29 0.0
20 04:55 S 7 10.00 Fair CLR 61 50.5 69% 30.28 0.0
20 04:35 S 7 10.00 Fair CLR 61.2 51.1 70% 30.28 0.0
20 04:15 S 10 10.00 Fair CLR 62.1 51.8 69% 30.28 0.0
20 03:35 S 10 10.00 Fair CLR 63.7 51.3 64% 30.29 0.0
20 03:15 S 10 10.00 Fair CLR 64.4 51.3 63% 30.29 0.0
20 02:55 S 10 10.00 Fair CLR 64.9 51.1 61% 30.29 0.0
20 02:35 S 12 10.00 Fair CLR 65.3 51.4 61% 30.29 0.0
20 02:15 S 8 10.00 Fair CLR 64 51.8 65% 30.29 0.0
20 01:55 S 9 10.00 Fair CLR 64.4 52.2 65% 30.29 0.0
20 01:35 S 8 10.00 Fair CLR 63.5 52.2 67% 30.3 0.0
20 01:15 S 7 10.00 Fair CLR 63.9 52.7 67% 30.31 0.0
20 00:55 S 10 10.00 Fair CLR 64.6 53.2 67% 30.31 0.0
20 00:35 S 10 10.00 Fair CLR 65.3 53.4 66% 30.3 0.0
20 00:15 SE 14 10.00 Fair CLR 65.8 54.5 67% 30.31 0.0
19 23:55 SE 13 10.00 Fair CLR 67.1 53.2 76.6 67.1 61% 30.33 0.0
19 23:35 SE 7 10.00 Fair CLR 68.2 49.6 52% 30.33 0.0
19 23:15 E 8 G 17 10.00 Partly Cloudy SCT110 69.3 49.1 49% 30.33 0.0
19 22:55 Calm 10.00 Overcast OVC110 70.7 47.5 44% 30.32 0.0
19 22:35 NW 6 10.00 Partly Cloudy SCT120 71.1 47.5 43% 30.32 0.0
19 22:15 NW 6 10.00 Fair CLR 71.6 47.7 43% 30.32 0.0
19 21:55 N 10 G 17 10.00 Fair CLR 72.1 47.3 41% 30.32 0.0
19 21:35 N 6 10.00 Fair CLR 70.9 49.1 46% 30.31 0.0
19 21:15 Calm 10.00 Fair CLR 71.8 50.2 47% 30.28 0.0
19 20:47 N 6 10.00 Fair CLR 71.6 50 47% 30.29 0.0
19 19:47 W 5 10.00 Fair CLR 73.4 46.4 38% 30.26 0.0
19 18:47 N 5 10.00 Partly Cloudy SCT120 75.2 46.4 36% 77 30.24 0.0
19 17:47 N 9 10.00 Partly Cloudy SCT034 75.2 46.4 36% 77 30.22 0.0
19 14:47 N 9 10.00 Fair CLR 84.2 41 22% 82 30.22 0.0
19 12:47 N 9 10.00 Fair CLR 87.8 42.8 21% 84 30.24 0.0
19 11:47 N 10 G 17 10.00 Mostly Cloudy SCT100 BKN120 84.2 41 22% 82 30.26 0.0
19 09:47 NW 13 G 20 10.00 Mostly Cloudy SCT070 BKN110 80.6 44.6 28% 79 30.26 0.0
19 08:47 W 5 10.00 Fair CLR 80.6 42.8 26% 79 30.24 0.0
19 07:47 SW 7 10.00 Fair CLR 75.2 42.8 31% 77 30.24 0.0
19 06:47 SW 7 10.00 Fair CLR 64.4 44.6 49% 30.23 0.0
19 06:35 W 7 10.00 Fair CLR 65.3 43.9 46% 30.23 0.0
19 06:15 SW 7 10.00 Fair CLR 66.2 43.7 44% 30.22 0.0
19 05:55 SW 5 10.00 Fair CLR 64.9 43.5 74.1 64.9 46% 30.22 0.0
19 05:35 SW 6 10.00 Fair CLR 68.4 43 40% 30.21 0.0
19 05:15 SW 8 10.00 Fair CLR 68.9 43 39% 30.21 0.0
19 04:55 SW 9 10.00 Fair CLR 68.5 43.3 40% 30.21 0.0
Date Time (mdt) Wind (mph) Vis. (mi.) Weather Sky Cond. Air Dwpt Max. Min. Relative Humidity Wind Chill (°F) Heat Index (°F) altimeter (in) sea level (mb) 1 hr 3 hr 6 hr
6 hour
Temperature (ºF) Pressure Precipitation (in)